| time (UTC) | temp F | wind direction | speed MPH | gust MPH | rain 1hr in | rain 24hr in | rain mn in | humidity % | barometer mb |
| 20260506090941 | 74 | 141 | 2.0 | 2.0 | 0.00 | 0.00 | 0.00 | 94 | 1008.6 |
| 20260506090439 | 74 | 141 | 2.0 | 2.0 | 0.00 | 0.00 | 0.00 | 94 | 1008.6 |
| 20260506085935 | 74 | 141 | 2.0 | 2.0 | 0.00 | 0.00 | 0.00 | 94 | 1008.5 |
| 20260506085432 | 74 | 164 | 0.0 | 1.0 | 0.00 | 0.00 | 0.00 | 94 | 1008.3 |
| 20260506084928 | 75 | 135 | 2.0 | 2.0 | 0.00 | 0.00 | 0.00 | 94 | 1008.5 |
| 20260506084425 | 75 | 162 | 1.0 | 2.0 | 0.00 | 0.00 | 0.00 | 94 | 1008.7 |
| 20260506083921 | 75 | 152 | 2.0 | 2.0 | 0.00 | 0.00 | 0.00 | 94 | 1008.7 |
| 20260506083419 | 75 | 157 | 2.0 | 2.0 | 0.00 | 0.00 | 0.00 | 94 | 1008.6 |
| 20260506082916 | 75 | 136 | 3.0 | 4.0 | 0.00 | 0.00 | 0.00 | 94 | 1008.7 |
| 20260506082413 | 75 | 156 | 3.0 | 4.0 | 0.00 | 0.00 | 0.00 | 93 | 1008.6 |
| 20260506081908 | 75 | 115 | 3.0 | 4.0 | 0.00 | 0.00 | 0.00 | 93 | 1008.8 |
| 20260506081407 | 75 | 120 | 3.0 | 3.0 | 0.00 | 0.00 | 0.00 | 93 | 1008.9 |
| 20260506080904 | 75 | 162 | 2.0 | 3.0 | 0.00 | 0.00 | 0.00 | 93 | 1008.8 |
| 20260506080401 | 75 | 140 | 3.0 | 4.0 | 0.00 | 0.00 | 0.00 | 93 | 1008.9 |
| 20260506073345 | 76 | 145 | 6.0 | 6.0 | 0.00 | 0.00 | 0.00 | 92 | 1009.2 |
| 20260506072841 | 76 | 156 | 4.0 | 6.0 | 0.00 | 0.00 | 0.00 | 92 | 1009.6 |
| 20260506072339 | 76 | 130 | 4.0 | 4.0 | 0.00 | 0.00 | 0.00 | 92 | 1009.5 |
| 20260506071837 | 76 | 163 | 5.0 | 7.0 | 0.00 | 0.00 | 0.00 | 91 | 1009.5 |
| 20260506071335 | 77 | 149 | 4.0 | 7.0 | 0.00 | 0.00 | 0.00 | 91 | 1009.5 |
| 20260506070831 | 77 | 158 | 3.0 | 3.0 | 0.00 | 0.00 | 0.00 | 91 | 1009.5 |
| 20260506070328 | 77 | 165 | 4.0 | 4.0 | 0.00 | 0.00 | 0.00 | 91 | 1009.6 |
| 20260506062306 | 77 | 147 | 7.0 | 8.0 | 0.00 | 0.00 | 0.00 | 90 | 1009.8 |
| 20260506061801 | 77 | 174 | 6.0 | 7.0 | 0.00 | 0.00 | 0.00 | 90 | 1009.8 |
| 20260506061258 | 77 | 140 | 3.0 | 8.0 | 0.00 | 0.00 | 0.00 | 90 | 1009.8 |
| 20260506060757 | 77 | 165 | 4.0 | 6.0 | 0.00 | 0.00 | 0.00 | 90 | 1009.7 |
| 20260506060254 | 77 | 139 | 4.0 | 4.0 | 0.00 | 0.00 | 0.00 | 90 | 1009.6 |
| 20260506051226 | 77 | 143 | 5.0 | 6.0 | 0.00 | 0.00 | 0.00 | 90 | 1009.7 |
| 20260506050724 | 77 | 152 | 5.0 | 6.0 | 0.00 | 0.00 | 0.00 | 90 | 1009.6 |
| 20260506050221 | 77 | 150 | 5.0 | 7.0 | 0.00 | 0.00 | 0.00 | 90 | 1009.7 |
| 20260506044712 | 77 | 136 | 7.0 | 9.0 | 0.00 | 0.00 | 0.00 | 90 | 1009.5 |
| 20260506044209 | 77 | 162 | 7.0 | 8.0 | 0.00 | 0.00 | 0.00 | 90 | 1009.4 |
| 20260506043706 | 77 | 86 | 5.0 | 8.0 | 0.00 | 0.00 | 0.00 | 90 | 1009.3 |
| 20260506043204 | 77 | 101 | 7.0 | 10.0 | 0.00 | 0.00 | 0.00 | 90 | 1009.3 |
| 20260506042703 | 77 | 156 | 6.0 | 9.0 | 0.00 | 0.00 | 0.00 | 90 | 1009.4 |
| 20260506042200 | 77 | 168 | 6.0 | 8.0 | 0.00 | 0.00 | 0.00 | 90 | 1009.3 |
| 20260506041659 | 77 | 129 | 5.0 | 6.0 | 0.00 | 0.00 | 0.00 | 90 | 1009.5 |
| 20260506041155 | 77 | 175 | 6.0 | 7.0 | 0.00 | 0.00 | 0.00 | 90 | 1009.4 |
| 20260506040653 | 77 | 122 | 7.0 | 8.0 | 0.00 | 0.00 | 0.00 | 90 | 1009.5 |
| 20260506040149 | 77 | 131 | 5.0 | 6.0 | 0.00 | 0.00 | 0.00 | 90 | 1009.4 |
| 20260506035646 | 77 | 103 | 6.0 | 8.0 | 0.00 | 0.00 | 0.00 | 90 | 1009.3 |
| 20260506035143 | 77 | 147 | 5.0 | 10.0 | 0.00 | 0.00 | 0.00 | 90 | 1009.1 |
| 20260506034640 | 77 | 160 | 5.0 | 10.0 | 0.00 | 0.00 | 0.00 | 90 | 1009.2 |
| 20260506034137 | 77 | 151 | 8.0 | 11.0 | 0.00 | 0.00 | 0.00 | 91 | 1009.1 |
| 20260506033634 | 77 | 152 | 4.0 | 4.0 | 0.00 | 0.00 | 0.00 | 91 | 1009.3 |
| 20260506033131 | 77 | 128 | 8.0 | 9.0 | 0.00 | 0.00 | 0.00 | 91 | 1009.4 |
| 20260506032628 | 77 | 141 | 5.0 | 6.0 | 0.00 | 0.00 | 0.00 | 90 | 1009.4 |
| 20260506032125 | 77 | 143 | 5.0 | 7.0 | 0.00 | 0.00 | 0.00 | 90 | 1009.1 |
| 20260506031623 | 77 | 155 | 4.0 | 6.0 | 0.00 | 0.00 | 0.00 | 90 | 1009.3 |
| 20260506031119 | 77 | 145 | 2.0 | 3.0 | 0.00 | 0.00 | 0.00 | 90 | 1009.1 |
| 20260506030618 | 77 | 139 | 4.0 | 4.0 | 0.00 | 0.00 | 0.00 | 90 | 1009.1 |
| 20260506030115 | 77 | 138 | 5.0 | 7.0 | 0.00 | 0.00 | 0.00 | 90 | 1009.0 |
| 20260506025612 | 77 | 149 | 4.0 | 6.0 | 0.00 | 0.00 | 0.00 | 90 | 1009.0 |
| 20260506025107 | 77 | 149 | 3.0 | 4.0 | 0.00 | 0.00 | 0.00 | 90 | 1008.9 |
| 20260506024605 | 77 | 157 | 3.0 | 3.0 | 0.00 | 0.00 | 0.00 | 90 | 1008.9 |
| 20260506024101 | 77 | 159 | 3.0 | 4.0 | 0.00 | 0.00 | 0.00 | 89 | 1008.9 |
| 20260506023557 | 77 | 149 | 5.0 | 6.0 | 0.00 | 0.00 | 0.00 | 89 | 1008.9 |
| 20260506023055 | 77 | 142 | 3.0 | 6.0 | 0.00 | 0.00 | 0.00 | 89 | 1008.6 |
| 20260506022552 | 77 | 158 | 4.0 | 6.0 | 0.00 | 0.00 | 0.00 | 89 | 1008.9 |
| 20260506022049 | 77 | 155 | 3.0 | 3.0 | 0.00 | 0.00 | 0.00 | 89 | 1008.6 |
| 20260506021547 | 77 | 152 | 4.0 | 4.0 | 0.00 | 0.00 | 0.00 | 89 | 1008.7 |
| 20260506021044 | 77 | 136 | 6.0 | 7.0 | 0.00 | 0.00 | 0.00 | 89 | 1008.5 |
| 20260506020541 | 77 | 169 | 4.0 | 4.0 | 0.00 | 0.00 | 0.00 | 88 | 1008.3 |
| 20260506020039 | 77 | 163 | 6.0 | 7.0 | 0.00 | 0.00 | 0.00 | 88 | 1008.4 |
| 20260506015536 | 77 | 142 | 4.0 | 6.0 | 0.00 | 0.00 | 0.00 | 88 | 1008.2 |
| 20260506015033 | 77 | 149 | 5.0 | 8.0 | 0.00 | 0.00 | 0.00 | 88 | 1008.1 |
| 20260506014530 | 77 | 141 | 5.0 | 6.0 | 0.00 | 0.00 | 0.00 | 88 | 1007.9 |
| 20260506014026 | 77 | 155 | 5.0 | 6.0 | 0.00 | 0.00 | 0.00 | 88 | 1008.1 |
| 20260506013524 | 77 | 137 | 5.0 | 7.0 | 0.00 | 0.00 | 0.00 | 88 | 1007.9 |
| 20260506013021 | 78 | 149 | 4.0 | 4.0 | 0.00 | 0.00 | 0.00 | 88 | 1007.9 |
| 20260506012517 | 78 | 155 | 4.0 | 6.0 | 0.00 | 0.00 | 0.00 | 87 | 1007.7 |
| 20260506012014 | 78 | 149 | 8.0 | 11.0 | 0.00 | 0.00 | 0.00 | 87 | 1007.4 |
| 20260506011512 | 78 | 143 | 8.0 | 11.0 | 0.00 | 0.00 | 0.00 | 87 | 1007.6 |
| 20260506011008 | 78 | 161 | 7.0 | 9.0 | 0.00 | 0.00 | 0.00 | 87 | 1007.3 |
| 20260506010507 | 78 | 129 | 6.0 | 7.0 | 0.00 | 0.00 | 0.00 | 87 | 1007.4 |
| 20260506010003 | 78 | 154 | 6.0 | 11.0 | 0.00 | 0.00 | 0.00 | 87 | 1007.3 |
| 20260506005500 | 78 | 174 | 7.0 | 10.0 | 0.00 | 0.00 | 0.00 | 87 | 1007.2 |
| 20260506004956 | 78 | 149 | 4.0 | 7.0 | 0.00 | 0.00 | 0.00 | 86 | 1007.2 |
| 20260506004454 | 78 | 155 | 7.0 | 10.0 | 0.00 | 0.00 | 0.00 | 86 | 1007.3 |
| 20260506003950 | 78 | 164 | 7.0 | 11.0 | 0.00 | 0.00 | 0.00 | 86 | 1007.2 |
| 20260506003446 | 78 | 171 | 9.0 | 11.0 | 0.00 | 0.00 | 0.00 | 86 | 1007.3 |
| 20260506002942 | 79 | 147 | 9.0 | 11.0 | 0.00 | 0.00 | 0.00 | 85 | 1007.0 |
| 20260506002439 | 79 | 135 | 7.0 | 9.0 | 0.00 | 0.00 | 0.00 | 85 | 1007.2 |
| 20260506001934 | 79 | 178 | 8.0 | 9.0 | 0.00 | 0.00 | 0.00 | 84 | 1007.2 |
| 20260506001432 | 79 | 162 | 8.0 | 13.0 | 0.00 | 0.00 | 0.00 | 84 | 1007.2 |
| 20260506000929 | 79 | 145 | 6.0 | 8.0 | 0.00 | 0.00 | 0.00 | 84 | 1007.2 |
| 20260506000426 | 79 | 163 | 6.0 | 11.0 | 0.00 | 0.00 | 0.00 | 84 | 1007.1 |
| 20260505235923 | 79 | 133 | 9.0 | 13.0 | 0.00 | 0.00 | 0.00 | 84 | 1007.2 |
| 20260505235421 | 79 | 146 | 6.0 | 8.0 | 0.00 | 0.00 | 0.00 | 83 | 1007.1 |
| 20260505234918 | 80 | 170 | 5.0 | 13.0 | 0.00 | 0.00 | 0.00 | 82 | 1007.1 |
| 20260505234415 | 80 | 175 | 9.0 | 13.0 | 0.00 | 0.00 | 0.00 | 82 | 1007.3 |
| 20260505233912 | 80 | 134 | 6.0 | 10.0 | 0.00 | 0.00 | 0.00 | 82 | 1007.3 |
| 20260505233410 | 80 | 154 | 9.0 | 10.0 | 0.00 | 0.00 | 0.00 | 82 | 1007.2 |
| 20260505232907 | 80 | 159 | 7.0 | 14.0 | 0.00 | 0.00 | 0.00 | 81 | 1007.4 |
| 20260505232405 | 80 | 165 | 13.0 | 15.0 | 0.00 | 0.00 | 0.00 | 81 | 1007.4 |
| 20260505231901 | 80 | 153 | 5.0 | 10.0 | 0.00 | 0.00 | 0.00 | 81 | 1007.4 |
| 20260505231359 | 80 | 136 | 9.0 | 14.0 | 0.00 | 0.00 | 0.00 | 80 | 1007.4 |
| 20260505230857 | 80 | 173 | 5.0 | 10.0 | 0.00 | 0.00 | 0.00 | 81 | 1007.4 |
| 20260505230354 | 80 | 140 | 7.0 | 11.0 | 0.00 | 0.00 | 0.00 | 80 | 1007.5 |
| 20260505225850 | 81 | 137 | 8.0 | 13.0 | 0.00 | 0.00 | 0.00 | 80 | 1007.3 |
| 20260505225348 | 81 | 143 | 5.0 | 8.0 | 0.00 | 0.00 | 0.00 | 80 | 1007.3 |
| 20260505224842 | 81 | 178 | 7.0 | 9.0 | 0.00 | 0.00 | 0.00 | 79 | 1007.4 |
| 20260505224341 | 81 | 139 | 6.0 | 9.0 | 0.00 | 0.00 | 0.00 | 79 | 1007.3 |
| 20260505223838 | 80 | 162 | 6.0 | 10.0 | 0.00 | 0.00 | 0.00 | 79 | 1007.5 |
| 20260505223334 | 81 | 208 | 9.0 | 13.0 | 0.00 | 0.00 | 0.00 | 79 | 1007.8 |
| 20260505222830 | 81 | 163 | 8.0 | 11.0 | 0.00 | 0.00 | 0.00 | 79 | 1007.6 |
| 20260505222326 | 81 | 136 | 6.0 | 11.0 | 0.00 | 0.00 | 0.00 | 79 | 1007.6 |
| 20260505221824 | 81 | 169 | 9.0 | 10.0 | 0.00 | 0.00 | 0.00 | 78 | 1007.9 |
| 20260505221320 | 81 | 131 | 8.0 | 11.0 | 0.00 | 0.00 | 0.00 | 78 | 1007.6 |
| 20260505220817 | 81 | 158 | 10.0 | 15.0 | 0.00 | 0.00 | 0.00 | 78 | 1007.8 |
| 20260505220314 | 81 | 164 | 2.0 | 6.0 | 0.00 | 0.00 | 0.00 | 79 | 1007.8 |
| 20260505215813 | 81 | 151 | 3.0 | 7.0 | 0.00 | 0.00 | 0.00 | 80 | 1007.8 |
| 20260505215310 | 81 | 169 | 5.0 | 8.0 | 0.00 | 0.00 | 0.00 | 80 | 1007.9 |
| 20260505214808 | 81 | 173 | 8.0 | 10.0 | 0.00 | 0.00 | 0.00 | 79 | 1007.8 |
| 20260505214305 | 81 | 183 | 8.0 | 10.0 | 0.00 | 0.00 | 0.00 | 79 | 1007.9 |
| 20260505213802 | 81 | 162 | 6.0 | 10.0 | 0.00 | 0.00 | 0.00 | 80 | 1007.8 |
| 20260505213300 | 81 | 146 | 6.0 | 16.0 | 0.00 | 0.00 | 0.00 | 79 | 1007.9 |
| 20260505212755 | 81 | 153 | 8.0 | 11.0 | 0.00 | 0.00 | 0.00 | 79 | 1008.1 |
| 20260505212253 | 81 | 149 | 6.0 | 10.0 | 0.00 | 0.00 | 0.00 | 80 | 1008.0 |
| 20260505211749 | 81 | 135 | 9.0 | 11.0 | 0.00 | 0.00 | 0.00 | 80 | 1008.2 |
| 20260505211247 | 81 | 150 | 9.0 | 11.0 | 0.00 | 0.00 | 0.00 | 80 | 1008.1 |
| 20260505210743 | 81 | 167 | 6.0 | 8.0 | 0.00 | 0.00 | 0.00 | 81 | 1008.2 |
| 20260505210240 | 81 | 182 | 5.0 | 8.0 | 0.00 | 0.00 | 0.00 | 80 | 1008.5 |
| 20260505205737 | 81 | 174 | 4.0 | 9.0 | 0.00 | 0.00 | 0.00 | 80 | 1008.4 |
| 20260505205236 | 81 | 175 | 7.0 | 14.0 | 0.00 | 0.00 | 0.00 | 79 | 1008.5 |
| 20260505204731 | 81 | 193 | 6.0 | 10.0 | 0.00 | 0.00 | 0.00 | 79 | 1008.6 |
| 20260505204230 | 81 | 155 | 3.0 | 8.0 | 0.00 | 0.00 | 0.00 | 80 | 1008.7 |
| 20260505203726 | 81 | 173 | 8.0 | 10.0 | 0.00 | 0.00 | 0.00 | 79 | 1008.9 |
| 20260505203223 | 81 | 174 | 5.0 | 7.0 | 0.00 | 0.00 | 0.00 | 79 | 1009.0 |
| 20260505202719 | 81 | 158 | 6.0 | 10.0 | 0.00 | 0.00 | 0.00 | 79 | 1008.9 |
| 20260505202215 | 81 | 155 | 12.0 | 14.0 | 0.00 | 0.00 | 0.00 | 78 | 1009.0 |
| 20260505201712 | 81 | 188 | 6.0 | 9.0 | 0.00 | 0.00 | 0.00 | 79 | 1009.0 |
| 20260505201210 | 82 | 189 | 9.0 | 13.0 | 0.00 | 0.00 | 0.00 | 78 | 1009.2 |
| 20260505200708 | 81 | 174 | 6.0 | 13.0 | 0.00 | 0.00 | 0.00 | 78 | 1009.1 |
| 20260505200204 | 81 | 176 | 8.0 | 14.0 | 0.00 | 0.00 | 0.00 | 77 | 1009.0 |
| 20260505195700 | 82 | 186 | 11.0 | 14.0 | 0.00 | 0.00 | 0.00 | 78 | 1009.2 |
| 20260505195158 | 81 | 171 | 12.0 | 16.0 | 0.00 | 0.00 | 0.00 | 77 | 1009.2 |
| 20260505194655 | 82 | 189 | 9.0 | 11.0 | 0.00 | 0.00 | 0.00 | 77 | 1009.2 |
| 20260505194151 | 82 | 170 | 6.0 | 13.0 | 0.00 | 0.00 | 0.00 | 77 | 1009.3 |
| 20260505193647 | 82 | 187 | 7.0 | 9.0 | 0.00 | 0.00 | 0.00 | 77 | 1009.2 |
| 20260505193144 | 82 | 184 | 8.0 | 11.0 | 0.00 | 0.00 | 0.00 | 77 | 1009.0 |
| 20260505192643 | 82 | 169 | 10.0 | 14.0 | 0.00 | 0.00 | 0.00 | 77 | 1009.1 |
| 20260505192140 | 82 | 117 | 11.0 | 15.0 | 0.00 | 0.00 | 0.00 | 78 | 1009.1 |
| 20260505191639 | 82 | 186 | 6.0 | 10.0 | 0.00 | 0.00 | 0.00 | 79 | 1009.3 |
| 20260505191137 | 82 | 184 | 8.0 | 14.0 | 0.00 | 0.00 | 0.00 | 79 | 1009.3 |
| 20260505190632 | 82 | 159 | 9.0 | 11.0 | 0.00 | 0.00 | 0.00 | 79 | 1009.1 |
| 20260505190127 | 81 | 165 | 9.0 | 13.0 | 0.00 | 0.00 | 0.00 | 79 | 1009.3 |
| 20260505185624 | 82 | 177 | 4.0 | 9.0 | 0.00 | 0.00 | 0.00 | 79 | 1009.5 |
| 20260505185120 | 82 | 153 | 6.0 | 10.0 | 0.00 | 0.00 | 0.00 | 80 | 1009.3 |
| 20260505184617 | 81 | 168 | 10.0 | 11.0 | 0.00 | 0.00 | 0.00 | 80 | 1009.3 |
| 20260505184114 | 81 | 175 | 8.0 | 13.0 | 0.00 | 0.00 | 0.00 | 80 | 1009.4 |
| 20260505183610 | 81 | 150 | 10.0 | 11.0 | 0.00 | 0.00 | 0.00 | 80 | 1009.5 |
| 20260505183108 | 81 | 187 | 8.0 | 13.0 | 0.00 | 0.00 | 0.00 | 79 | 1009.7 |
| 20260505182604 | 81 | 0 | 6.0 | 11.0 | 0.00 | 0.00 | 0.00 | 80 | 1009.6 |
| 20260505182101 | 81 | 172 | 9.0 | 10.0 | 0.00 | 0.00 | 0.00 | 80 | 1009.7 |
| 20260505181558 | 81 | 157 | 6.0 | 10.0 | 0.00 | 0.00 | 0.00 | 81 | 1009.6 |
| 20260505181055 | 81 | 190 | 7.0 | 14.0 | 0.00 | 0.00 | 0.00 | 80 | 1009.8 |
| 20260505180550 | 81 | 181 | 9.0 | 11.0 | 0.00 | 0.00 | 0.00 | 80 | 1009.5 |
| 20260505180049 | 81 | 159 | 6.0 | 8.0 | 0.00 | 0.00 | 0.00 | 81 | 1009.8 |
| 20260505175549 | 81 | 172 | 8.0 | 10.0 | 0.00 | 0.00 | 0.00 | 81 | 1009.7 |
| 20260505175046 | 80 | 153 | 8.0 | 11.0 | 0.00 | 0.00 | 0.00 | 82 | 1009.7 |
| 20260505174543 | 80 | 173 | 5.0 | 9.0 | 0.00 | 0.00 | 0.00 | 81 | 1009.9 |
| 20260505174039 | 80 | 178 | 6.0 | 9.0 | 0.00 | 0.00 | 0.00 | 81 | 1009.8 |
| 20260505173536 | 81 | 193 | 13.0 | 14.0 | 0.00 | 0.00 | 0.00 | 80 | 1010.0 |
| 20260505173033 | 81 | 188 | 10.0 | 13.0 | 0.00 | 0.00 | 0.00 | 81 | 1010.0 |
| 20260505172531 | 80 | 186 | 11.0 | 14.0 | 0.00 | 0.00 | 0.00 | 81 | 1009.9 |
| 20260505172027 | 81 | 198 | 10.0 | 14.0 | 0.00 | 0.00 | 0.00 | 81 | 1009.9 |
| 20260505171522 | 81 | 188 | 10.0 | 14.0 | 0.00 | 0.00 | 0.00 | 81 | 1010.1 |
| 20260505171019 | 80 | 205 | 9.0 | 10.0 | 0.00 | 0.00 | 0.00 | 82 | 1009.8 |
| 20260505170516 | 80 | 120 | 8.0 | 9.0 | 0.00 | 0.00 | 0.00 | 82 | 1009.9 |
| 20260505170013 | 80 | 186 | 6.0 | 11.0 | 0.00 | 0.00 | 0.00 | 82 | 1010.1 |
| 20260505165508 | 80 | 179 | 11.0 | 14.0 | 0.00 | 0.00 | 0.00 | 82 | 1009.8 |
| 20260505165004 | 80 | 214 | 7.0 | 8.0 | 0.00 | 0.00 | 0.00 | 82 | 1010.2 |
| 20260505164500 | 79 | 190 | 11.0 | 11.0 | 0.00 | 0.00 | 0.00 | 82 | 1010.0 |
| 20260505163958 | 79 | 182 | 7.0 | 9.0 | 0.00 | 0.00 | 0.00 | 83 | 1010.0 |
| 20260505163456 | 79 | 150 | 8.0 | 9.0 | 0.00 | 0.00 | 0.00 | 83 | 1010.1 |
| 20260505162955 | 79 | 183 | 10.0 | 11.0 | 0.00 | 0.00 | 0.00 | 83 | 1009.9 |
| 20260505162451 | 79 | 171 | 7.0 | 14.0 | 0.00 | 0.00 | 0.00 | 83 | 1010.0 |
| 20260505161947 | 79 | 181 | 7.0 | 13.0 | 0.00 | 0.00 | 0.00 | 83 | 1010.2 |
| 20260505161444 | 79 | 172 | 10.0 | 11.0 | 0.00 | 0.00 | 0.00 | 83 | 1010.1 |
| 20260505160942 | 79 | 199 | 7.0 | 10.0 | 0.00 | 0.00 | 0.00 | 83 | 1010.0 |
| 20260505160440 | 79 | 187 | 11.0 | 16.0 | 0.00 | 0.00 | 0.00 | 83 | 1010.1 |
| 20260505152916 | 78 | 189 | 6.0 | 9.0 | 0.00 | 0.00 | 0.00 | 85 | 1009.9 |
| 20260505152414 | 78 | 195 | 8.0 | 14.0 | 0.00 | 0.00 | 0.00 | 85 | 1009.9 |
| 20260505151913 | 78 | 185 | 8.0 | 10.0 | 0.00 | 0.00 | 0.00 | 85 | 1009.7 |
| 20260505151410 | 78 | 195 | 4.0 | 8.0 | 0.00 | 0.00 | 0.00 | 85 | 1009.4 |
| 20260505150907 | 78 | 171 | 4.0 | 11.0 | 0.00 | 0.00 | 0.00 | 86 | 1009.6 |
| 20260505150404 | 78 | 161 | 6.0 | 11.0 | 0.00 | 0.00 | 0.00 | 86 | 1009.7 |
| 20260505140334 | 77 | 136 | 5.0 | 7.0 | 0.00 | 0.00 | 0.00 | 88 | 1010.0 |
| 20260505130257 | 74 | 105 | 6.0 | 9.0 | 0.00 | 0.00 | 0.00 | 93 | 1009.4 |
| 20260505124748 | 74 | 147 | 4.0 | 6.0 | 0.00 | 0.00 | 0.00 | 93 | 1009.4 |
| 20260505124245 | 74 | 158 | 4.0 | 4.0 | 0.00 | 0.00 | 0.00 | 94 | 1009.3 |
| 20260505123740 | 73 | 144 | 3.0 | 3.0 | 0.00 | 0.00 | 0.00 | 94 | 1009.3 |
| 20260505123237 | 73 | 167 | 2.0 | 7.0 | 0.00 | 0.00 | 0.00 | 94 | 1009.2 |
| 20260505122734 | 73 | 141 | 3.0 | 8.0 | 0.00 | 0.00 | 0.00 | 94 | 1009.1 |
| 20260505122231 | 73 | 151 | 4.0 | 6.0 | 0.00 | 0.00 | 0.00 | 94 | 1009.0 |
| 20260505121728 | 73 | 148 | 4.0 | 7.0 | 0.00 | 0.00 | 0.00 | 94 | 1008.9 |
| 20260505121224 | 73 | 155 | 4.0 | 6.0 | 0.00 | 0.00 | 0.00 | 94 | 1008.9 |
| 20260505120721 | 72 | 164 | 3.0 | 6.0 | 0.00 | 0.00 | 0.00 | 94 | 1009.0 |
| 20260505120217 | 72 | 117 | 4.0 | 4.0 | 0.00 | 0.00 | 0.00 | 94 | 1008.9 |
| 20260505115715 | 72 | 163 | 3.0 | 3.0 | 0.00 | 0.00 | 0.00 | 94 | 1009.0 |
| 20260505115213 | 72 | 131 | 3.0 | 3.0 | 0.00 | 0.00 | 0.00 | 94 | 1009.0 |
| 20260505114710 | 72 | 157 | 3.0 | 6.0 | 0.00 | 0.00 | 0.00 | 94 | 1009.2 |
| 20260505114206 | 72 | 140 | 2.0 | 3.0 | 0.00 | 0.00 | 0.00 | 94 | 1009.1 |
| 20260505113703 | 72 | 143 | 2.0 | 4.0 | 0.00 | 0.00 | 0.00 | 93 | 1009.1 |
| 20260505113200 | 72 | 154 | 2.0 | 4.0 | 0.00 | 0.00 | 0.00 | 93 | 1008.9 |
| 20260505112656 | 72 | 167 | 3.0 | 4.0 | 0.00 | 0.00 | 0.00 | 93 | 1008.8 |
| 20260505112154 | 72 | 160 | 1.0 | 2.0 | 0.00 | 0.00 | 0.00 | 93 | 1008.8 |
| 20260505111653 | 72 | 160 | 1.0 | 2.0 | 0.00 | 0.00 | 0.00 | 93 | 1009.1 |
| 20260505111149 | 72 | 157 | 2.0 | 2.0 | 0.00 | 0.00 | 0.00 | 93 | 1009.0 |
| 20260505110646 | 72 | 143 | 2.0 | 3.0 | 0.00 | 0.00 | 0.00 | 93 | 1009.2 |
| 20260505110143 | 72 | 159 | 1.0 | 1.0 | 0.00 | 0.00 | 0.00 | 93 | 1009.5 |
| 20260505102119 | 71 | 151 | 3.0 | 3.0 | 0.00 | 0.00 | 0.00 | 93 | 1009.1 |
| 20260505101617 | 71 | 169 | 1.0 | 2.0 | 0.00 | 0.00 | 0.00 | 93 | 1009.3 |
| 20260505101113 | 71 | 164 | 1.0 | 2.0 | 0.00 | 0.00 | 0.00 | 93 | 1009.2 |
| 20260505100610 | 71 | 174 | 1.0 | 2.0 | 0.00 | 0.00 | 0.00 | 94 | 1009.2 |
| 20260505100107 | 71 | 170 | 3.0 | 4.0 | 0.00 | 0.00 | 0.00 | 94 | 1009.3 |
| 20260505095603 | 71 | 158 | 4.0 | 6.0 | 0.00 | 0.00 | 0.00 | 94 | 1008.9 |
| 20260505095059 | 71 | 154 | 2.0 | 3.0 | 0.00 | 0.00 | 0.00 | 94 | 1009.2 |
| 20260505094556 | 71 | 163 | 2.0 | 2.0 | 0.00 | 0.00 | 0.00 | 93 | 1009.1 |
| 20260505094052 | 71 | 160 | 0.0 | 0.0 | 0.00 | 0.00 | 0.00 | 94 | 1009.1 |
| 20260505093549 | 71 | 160 | 0.0 | 0.0 | 0.00 | 0.00 | 0.00 | 93 | 1009.2 |
| 20260505093046 | 71 | 164 | 0.0 | 0.0 | 0.00 | 0.00 | 0.00 | 93 | 1009.4 |
| 20260505092543 | 71 | 166 | 1.0 | 1.0 | 0.00 | 0.00 | 0.00 | 94 | 1009.5 |
| 20260505092042 | 71 | 162 | 0.0 | 1.0 | 0.00 | 0.00 | 0.00 | 94 | 1009.3 |
| 20260505091538 | 71 | 167 | 0.0 | 2.0 | 0.00 | 0.00 | 0.00 | 93 | 1009.5 |